Location: Newark
(39.1400°N, 92.7000°W)
Time: 13:01:38
(UTC+00:00)

X-37B - Visible Passes

Search period start: 29 September 2020 00:00
Search period end: 09 October 2020 00:00
Orbit: 386 x 387 km, 45.0° (Epoch: 18 September)

Date Brightness Start Highest point End Pass type
(mag) Time Alt. Az. Time Alt. Az. Time Alt. Az.
01 Oct 2.7 01:37:32 10° SW 01:38:45 20° SSW 01:38:45 20° SSW visible
02 Oct 2.2 00:39:39 10° SSW 00:42:04 20° SE 00:43:20 16° ESE visible
02 Oct 3.8 02:15:18 10° WSW 02:15:38 12° WSW 02:15:38 12° WSW visible
03 Oct 0.4 01:16:43 10° WSW 01:19:52 73° SSE 01:20:04 69° ESE visible
04 Oct 1.3 00:18:24 10° SW 00:21:22 38° SSE 00:24:20 10° ENE visible
04 Oct 2.8 01:54:57 10° W 01:56:40 26° WNW 01:56:40 26° WNW visible
05 Oct 0.8 00:56:11 10° WSW 00:59:20 64° NNW 01:00:52 27° NE visible
06 Oct 2.2 01:34:40 10° WNW 01:37:16 31° NNW 01:37:16 31° NNW visible
07 Oct 1.5 00:35:49 10° W 00:38:52 41° NNW 00:41:19 14° NE visible
07 Oct 4.0 02:13:10 10° WNW 02:13:35 12° NW 02:13:35 12° NW visible
08 Oct 2.1 01:14:24 10° WNW 01:17:11 27° N 01:17:36 26° N visible
